1499554800.71,4241,17.38,74068.3,2.69,1.97,1.29,0,*46
1499554801.96,4242,17.38,74070.0,2.69,1.93,1.29,0,*41
1499554803.2,4243,17.38,74068.0,2.69,1.93,1.29,0,*40
1499554804.46,4244,17.38,74066.0,2.69,1.93,1.37,0,*48
1499554805.68,4245,17.38,74066.3,2.69,1.97,1.41,0,*4C
1499554806.9,4246,17.38,74064.5,2.71,2.01,1.51,0,*4B
1499554808.12,4247,17.38,74070.3,2.71,2.05,1.51,0,*4E
1499554809.34,4248,17.38,74072.0,2.71,2.01,1.55,0,*41
1499554810.53,4249,17.38,74080.3,2.71,2.01,1.41,0,*45
1499554811.76,4250,17.38,74086.0,2.71,2.01,1.33,0,*48
1499554812.98,4251,17.38,74082.5,2.71,1.97,1.29,0,*4E
1499554814.24,4252,17.38,74086.3,2.73,1.85,1.21,0,*44
1499554815.44,4253,17.38,74074.5,2.71,1.79,1.29,0,*4C
1499554816.69,4254,17.38,74076.5,2.73,1.85,1.43,0,*46
1499554817.91,4255,17.38,74080.3,2.71,1.85,1.55,0,*42
1499554819.13,4256,17.38,74080.3,2.71,1.97,1.43,0,*45
1499554820.39,4257,17.38,74076.8,2.73,1.97,1.55,0,*41
1499554821.64,4258,17.38,74076.8,2.73,1.97,1.51,0,*4A
1499554822.9,4259,17.38,74078.5,2.73,1.97,1.51,0,*4B
1499554824.12,4260,17.38,74082.8,2.71,2.01,1.55,0,*4B
1499554825.37,4261,17.38,74080.5,2.73,2.01,1.55,0,*48
1499554826.62,4262,17.44,74082.0,2.73,2.01,1.51,0,*4F
1499554827.87,4263,17.38,74078.5,2.73,2.01,1.55,0,*4A
1499554829.09,4264,17.44,74082.8,2.71,2.01,1.63,0,*4A
1499554830.34,4265,17.38,74080.8,2.73,2.01,1.55,0,*4C
1499554831.57,4266,17.38,74082.3,2.71,2.01,1.55,0,*4D
1499554832.79,4267,17.38,74086.8,2.71,2.01,1.43,0,*4B
1499554834.03,4268,17.38,74080.0,2.73,1.89,1.29,0,*49
1499554835.28,4269,17.38,74082.0,2.73,1.89,1.21,0,*40
1499554836.5,4270,17.38,74076.0,2.71,1.89,1.17,0,*4F
1499554837.75,4271,17.38,74078.3,2.73,1.89,1.17,0,*4C
1499554838.95,4272,17.38,74080.8,2.73,1.79,1.41,0,*43
1499554840.15,4273,17.38,74074.0,2.71,1.79,1.51,0,*41
1499554841.4,4274,17.38,74064.8,2.73,1.97,1.43,0,*47
1499554842.64,4275,17.38,74066.3,2.73,1.89,1.55,0,*4E
1499554843.87,4276,17.38,74068.0,2.71,1.97,1.67,0,*41
1499554845.12,4277,17.38,74070.5,2.73,2.01,1.67,0,*4E
1499554846.37,4278,17.38,74052.8,2.73,1.97,1.67,0,*4D
1499554847.62,4279,17.38,74064.0,2.73,1.97,1.67,0,*4C
1499554848.87,4280,17.38,74066.3,2.73,2.01,1.67,0,*46
1499554850.13,4281,17.38,74066.8,2.73,2.01,1.67,0,*47
1499554851.35,4282,17.38,74070.0,2.79,2.05,1.71,0,*4D
1499554852.56,4283,17.38,74074.5,2.75,2.05,1.59,0,*4A
1499554853.81,4284,17.38,74074.3,2.73,1.89,1.67,0,*41
1499554855.06,4285,17.38,74080.0,2.73,1.97,1.67,0,*4F
1499554856.31,4286,17.38,74086.8,2.73,1.89,1.71,0,*44
1499554857.56,4287,17.38,74078.0,2.73,1.89,1.55,0,*43
1499554858.75,4288,17.44,74080.5,2.75,1.83,1.59,0,*4C
1499554859.98,4289,17.38,74076.0,2.75,1.93,1.55,0,*40
1499554861.2,4290,17.38,74078.8,2.75,1.93,1.59,0,*44
1499554862.4,4291,17.38,74078.8,2.75,1.79,1.55,0,*4D
1499554863.59,4292,17.38,74072.3,2.75,1.83,1.55,0,*4B
1499554864.85,4293,17.38,74074.8,2.73,1.85,1.43,0,*4D
1499554866.07,4294,17.38,74076.3,2.73,1.97,1.41,0,*4B
1499554867.29,4295,17.38,74072.0,2.75,1.93,1.47,0,*4E
1499554868.51,4296,17.38,74070.8,2.75,1.89,1.55,0,*45
1499554869.73,4297,17.38,74068.3,2.75,1.89,1.67,0,*45
1499554870.99,4298,17.38,74066.8,2.73,1.85,1.63,0,*44
1499554872.24,4299,17.38,74068.5,2.73,1.97,1.67,0,*42
1499554873.47,4300,17.38,74064.0,2.73,1.89,1.75,0,*4F
1499554874.7,4301,17.38,74060.5,2.73,1.97,1.75,0,*41
1499554875.94,4302,17.38,74058.3,2.73,2.01,1.89,0,*4D
1499554877.19,4303,17.38,74070.8,2.73,2.01,1.97,0,*43
1499554878.42,4304,17.38,74070.8,2.75,2.05,1.93,0,*42
1499554879.63,4305,17.38,74062.8,2.75,2.09,1.89,0,*44
1499554880.86,4306,17.38,74064.0,2.75,2.05,2.01,0,*48
1499554882.08,4307,17.38,74068.8,2.75,2.09,1.93,0,*4D
1499554883.31,4308,17.38,74072.3,2.75,2.09,2.01,0,*4A
1499554884.54,4309,17.38,74066.3,2.75,2.17,2.01,0,*44
1499554885.76,4310,17.38,74060.0,2.79,2.13,1.97,0,*48
1499554886.98,4311,17.38,74056.0,2.75,2.05,2.01,0,*4E
1499554888.21,4312,17.38,74062.8,2.75,2.09,2.01,0,*41
1499554889.43,4313,17.38,74064.3,2.75,2.05,1.93,0,*44
1499554890.65,4314,17.38,74056.0,2.75,2.05,1.93,0,*43
1499554891.87,4315,17.38,74042.8,2.79,2.09,1.97,0,*46
1499554893.08,4316,17.38,74040.8,2.75,2.09,1.83,0,*4C
1499554894.3,4317,17.38,74042.5,2.75,2.05,1.93,0,*40
1499554895.52,4318,17.38,74050.8,2.75,2.05,1.93,0,*4F
1499554896.74,4319,17.38,74042.8,2.75,2.01,1.93,0,*4A
1499554897.95,4320,17.38,74040.8,2.75,2.01,1.83,0,*41
1499554899.17,4321,17.38,74046.8,2.75,2.01,1.59,0,*47
1499554900.39,4322,17.38,74052.5,2.75,2.01,1.67,0,*49
1499554901.61,4323,17.38,74044.0,2.75,2.01,1.71,0,*4F
1499554902.83,4324,17.38,74046.0,2.75,2.01,1.93,0,*44
1499554904.06,4325,17.38,74050.3,2.75,2.05,1.93,0,*41
1499554905.28,4326,17.38,74050.8,2.75,2.05,1.93,0,*42
1499554906.5,4327,17.38,74042.3,2.79,2.05,1.97,0,*4B
1499554907.72,4328,17.38,74048.3,2.75,2.05,1.93,0,*4C
1499554908.94,4329,17.38,74048.3,2.75,2.05,1.89,0,*46
1499554910.16,4330,17.38,74044.5,2.75,2.05,1.89,0,*4E
1499554911.39,4331,17.38,74052.0,2.73,2.01,1.79,0,*42
1499554912.63,4332,17.38,74056.3,2.73,2.05,1.97,0,*45
1499554913.86,4333,17.38,74050.5,2.75,2.09,1.93,0,*4A
1499554915.08,4334,17.38,74054.8,2.75,2.09,2.01,0,*45
1499554916.31,4335,17.38,74056.5,2.79,2.25,2.05,0,*42
1499554917.53,4336,17.38,74064.0,2.75,2.21,2.01,0,*4D
1499554918.75,4337,17.38,74064.8,2.79,2.25,2.09,0,*4C
1499554919.98,4338,17.38,74068.8,2.79,2.25,2.09,0,*43
1499554921.21,4339,17.38,74070.5,2.75,2.17,2.05,0,*43
1499554922.44,4340,17.38,74068.5,2.79,2.25,2.13,0,*47
1499554923.66,4341,17.38,74078.3,2.79,2.25,2.09,0,*4D
1499554924.86,4342,17.38,74074.0,2.79,2.21,1.83,0,*4B
1499554926.08,4343,17.38,74070.5,2.79,2.21,1.85,0,*4C
1499554927.28,4344,17.38,74076.8,2.79,2.21,1.83,0,*4D
1499554928.5,4345,17.38,74078.5,2.79,2.25,1.71,0,*45
1499554929.72,4346,17.38,74076.3,2.79,2.21,1.71,0,*42
1499554930.94,4347,17.38,74082.3,2.79,2.09,1.63,0,*4A
1499554932.16,4348,17.38,74080.5,2.79,2.09,1.59,0,*4C
1499554933.38,4349,17.38,74078.0,2.79,2.13,1.63,0,*4F
1499554934.6,4350,17.38,74078.3,2.79,2.09,1.63,0,*4C
1499554935.82,4351,17.38,74074.8,2.79,2.09,1.63,0,*4D
1499554937.05,4352,17.38,74080.8,2.79,2.13,1.63,0,*45
1499554938.27,4353,17.38,74078.8,2.79,2.09,1.59,0,*46
1499554939.49,4354,17.38,74080.8,2.79,2.09,1.51,0,*49
1499554940.74,4355,17.38,74076.0,2.81,2.09,1.63,0,*4E
1499554941.99,4356,17.38,74074.8,2.81,2.05,1.71,0,*42
1499554943.21,4357,17.38,74070.8,2.81,2.13,1.75,0,*40
1499554944.44,4358,17.38,74070.8,2.81,2.21,1.83,0,*47
1499554945.66,4359,17.38,74070.5,2.81,2.21,1.83,0,*46
1499554946.91,4360,17.38,74074.0,2.81,2.21,1.93,0,*4D
1499554948.16,4361,17.38,74076.8,2.81,2.25,2.05,0,*44
1499554949.41,4362,17.38,74074.0,2.81,2.09,1.97,0,*41
1499554950.66,4363,17.38,74070.0,2.81,2.13,2.05,0,*43
1499554951.88,4364,17.38,74072.3,2.83,2.25,2.09,0,*4F
1499554953.08,4365,17.38,74076.5,2.83,2.27,2.09,0,*4C
1499554954.28,4366,17.38,74076.5,2.83,2.35,2.01,0,*44
1499554955.53,4367,17.38,74082.8,2.81,2.21,1.85,0,*4D
1499554956.78,4368,17.38,74086.8,2.81,2.13,1.63,0,*4B
1499554958.03,4369,17.38,74082.8,2.81,2.09,1.63,0,*41
1499554959.28,4370,17.38,74080.8,2.81,2.09,1.71,0,*4A
1499554960.48,4371,17.38,74080.0,2.83,2.17,1.75,0,*42
1499554961.73,4372,17.38,74080.3,2.81,2.13,1.63,0,*40
1499554962.96,4373,17.38,74082.0,2.83,2.17,1.85,0,*4F
1499554964.19,4374,17.38,74082.0,2.83,2.25,1.85,0,*49
1499554965.41,4375,17.38,74078.8,2.83,2.25,1.67,0,*44
1499554966.65,4376,17.38,74076.0,2.85,2.13,1.55,0,*45
1499554967.87,4377,17.38,74072.0,2.81,2.09,1.41,0,*4E
1499554969.09,4378,17.38,74074.0,2.83,2.13,1.55,0,*4D
1499554970.31,4379,17.38,74070.5,2.83,2.13,1.63,0,*49
1499554971.56,4380,17.38,74068.8,2.81,2.05,1.51,0,*4B
1499554972.76,4381,17.38,74068.5,2.83,2.09,1.75,0,*42
1499554973.99,4382,17.38,74064.0,2.83,2.17,1.97,0,*42
1499554975.2,4383,17.38,74068.3,2.83,2.13,1.89,0,*48
1499554976.43,4384,17.38,74074.8,2.83,2.13,1.85,0,*43
1499554977.66,4385,17.38,74072.5,2.85,2.17,1.79,0,*43
1499554978.86,4386,17.38,74072.3,2.83,2.13,1.79,0,*42
1499554980.06,4387,17.38,74074.3,2.83,2.13,1.79,0,*43
1499554981.28,4388,17.38,74076.5,2.83,2.13,2.01,0,*40
1499554982.51,4389,17.38,74072.3,2.83,2.13,2.09,0,*49
1499554983.74,4390,17.38,74076.3,2.83,2.17,2.09,0,*45
1499554984.97,4391,17.38,74072.8,2.83,2.17,2.17,0,*4B
1499554986.2,4392,17.38,74070.3,2.83,2.17,2.17,0,*48
1499554987.4,4393,17.38,74070.5,2.85,2.27,2.27,0,*4F
1499554988.6,4394,17.38,74072.3,2.85,2.35,2.35,0,*48
1499554989.79,4395,17.38,74078.3,2.85,2.35,2.27,0,*4A
1499554991.02,4396,17.38,74084.3,2.85,2.35,2.17,0,*4A
1499554992.25,4397,17.38,74076.0,2.85,2.35,2.17,0,*4B
1499554993.42,4398,17.38,74068.0,2.87,2.31,2.27,0,*41
1499554994.64,4399,17.38,74062.8,2.85,2.35,2.25,0,*44
1499554995.86,4400,17.38,74070.0,2.85,2.39,2.27,0,*4D
1499554997.09,4401,17.38,74068.0,2.85,2.35,2.25,0,*42
1499554998.31,4402,17.38,74058.3,2.85,2.35,2.13,0,*44
1499554999.53,4403,17.38,74060.5,2.87,2.43,2.21,0,*47
1499555000.75,4404,17.38,74066.5,2.87,2.43,2.21,0,*40
1499555001.97,4405,17.38,74068.3,2.87,2.43,2.21,0,*41
1499555003.18,4406,17.38,74074.8,2.87,2.31,2.17,0,*42
1499555004.43,4407,17.38,74076.3,2.85,2.25,2.09,0,*4B
1499555005.62,4408,17.38,74068.0,2.87,2.27,2.05,0,*48
1499555006.87,4409,17.38,74074.8,2.85,2.25,2.01,0,*4D
1499555008.12,4410,17.38,74076.8,2.85,2.13,2.01,0,*40
1499555009.34,4411,17.38,74080.3,2.87,2.13,2.01,0,*43
1499555010.56,4412,17.38,74080.8,2.87,2.13,2.01,0,*40
1499555011.81,4413,17.38,74074.0,2.85,2.09,2.09,0,*40
1499555013.04,4414,17.38,74068.3,2.87,2.17,2.13,0,*41
1499555014.27,4415,17.38,74062.3,2.87,2.21,2.13,0,*45
1499555015.47,4416,17.38,74080.8,2.87,2.27,2.17,0,*44
1499555016.67,4417,17.38,74070.5,2.87,2.31,2.17,0,*42
1499555017.87,4418,17.38,74064.3,2.87,2.31,2.17,0,*4D
1499555019.07,4419,17.38,74072.0,2.87,2.31,2.17,0,*4C
1499555020.28,4420,17.38,74072.5,2.87,2.31,2.17,0,*46
1499555021.5,4421,17.38,74070.5,2.87,2.39,2.17,0,*4F
1499555022.7,4422,17.38,74082.3,2.87,2.27,1.93,0,*4C
1499555023.92,4423,17.38,74076.0,2.87,2.13,1.67,0,*41
1499555025.14,4424,17.38,74072.5,2.89,2.05,1.79,0,*40
1499555026.36,4425,17.38,74074.3,2.87,2.13,1.93,0,*4C
1499555027.58,4426,17.38,74086.3,2.87,2.21,2.05,0,*42
1499555028.78,4427,17.38,74080.8,2.87,2.27,2.05,0,*45
1499555030.03,4428,17.38,74076.8,2.85,2.17,2.01,0,*4F
1499555031.26,4429,17.38,74076.3,2.87,2.17,2.13,0,*4F
1499555032.49,4430,17.38,74074.0,2.87,2.21,2.13,0,*42
1499555033.69,4431,17.38,74066.5,2.87,2.27,2.13,0,*45
1499555034.89,4432,17.38,74066.0,2.87,2.31,2.13,0,*41
1499555036.12,4433,17.38,74072.0,2.89,2.27,2.17,0,*4D
1499555037.34,4434,17.38,74074.0,2.87,2.39,2.21,0,*4E
1499555038.56,4435,17.38,74078.5,2.87,2.39,2.21,0,*4F
1499555039.78,4436,17.38,74080.8,2.89,2.31,2.21,0,*4A
1499555041.0,4437,17.38,74082.5,2.89,2.31,2.21,0,*4B
1499555042.23,4438,17.38,74084.5,2.89,2.27,2.17,0,*46
1499555043.48,4439,17.38,74088.0,2.89,2.21,2.17,0,*41
1499555044.74,4440,17.38,74084.0,2.89,2.17,2.13,0,*4E
1499555045.99,4441,17.38,74078.8,2.89,2.21,2.13,0,*4A
1499555047.22,4442,17.38,74082.0,2.87,2.17,2.13,0,*42
1499555048.44,4443,17.38,74084.5,2.87,2.21,2.17,0,*42
1499555049.65,4444,17.38,74086.5,2.87,2.27,2.17,0,*43
1499555050.81,4445,17.38,74080.0,2.91,2.35,2.31,0,*42
1499555052.03,4446,17.38,74074.0,2.89,2.27,2.21,0,*4A
1499555053.26,4447,17.38,74074.5,2.89,2.31,2.21,0,*4C
1499555054.49,4448,17.38,74076.3,2.89,2.31,2.17,0,*46
1499555055.71,4449,17.38,74072.0,2.89,2.31,2.17,0,*47
1499555056.94,4450,17.38,74076.0,2.89,2.31,2.21,0,*4A
1499555058.16,4451,17.38,74078.8,2.89,2.31,2.21,0,*4B
1499555059.35,4452,17.38,74076.3,2.91,2.31,2.21,0,*41
1499555060.55,4453,17.38,74070.5,2.91,2.31,2.21,0,*40
1499555061.74,4454,17.38,74070.0,2.91,2.43,2.31,0,*43
1499555062.97,4455,17.38,74068.8,2.89,2.31,2.21,0,*4F
1499555064.22,4456,17.38,74082.0,2.89,2.39,2.17,0,*41
1499555065.45,4457,17.38,74082.5,2.89,2.27,2.17,0,*4F
1499555066.64,4458,17.38,74088.3,2.91,2.35,2.21,0,*4F
1499555067.87,4459,17.38,74086.0,2.89,2.27,2.01,0,*46
1499555069.11,4460,17.38,74084.0,2.89,2.21,2.01,0,*4A
1499555070.34,4461,17.38,74078.3,2.91,2.21,2.17,0,*45
1499555071.56,4462,17.38,74086.3,2.91,2.25,2.17,0,*42
1499555072.79,4463,17.38,74082.5,2.91,2.25,2.17,0,*43
1499555074.01,4464,17.38,74078.0,2.91,2.25,2.17,0,*44
1499555075.23,4465,17.38,74078.0,2.91,2.21,2.09,0,*4E
1499555076.48,4466,17.38,74078.8,2.89,2.17,1.93,0,*41
1499555077.7,4467,17.38,74072.3,2.91,2.21,2.09,0,*4C
1499555078.95,4468,17.38,74072.3,2.89,2.21,2.09,0,*4A
1499555080.15,4469,17.38,74066.8,2.91,2.31,2.09,0,*43
1499555081.38,4470,17.38,74066.0,2.89,2.31,2.17,0,*4D
1499555082.6,4471,17.38,74068.3,2.91,2.47,2.25,0,*45
1499555083.82,4472,17.38,74076.0,2.91,2.43,2.21,0,*46
1499555085.05,4473,17.38,74068.0,2.89,2.31,2.13,0,*4A
1499555086.25,4474,17.38,74072.0,2.91,2.35,2.17,0,*44
1499555087.45,4475,17.38,74076.5,2.91,2.35,2.09,0,*4A
1499555088.65,4476,17.38,74070.5,2.91,2.31,2.17,0,*42
1499555089.88,4477,17.38,74078.3,2.89,2.27,2.05,0,*4E
1499555091.1,4478,17.38,74080.3,2.91,2.25,2.09,0,*46
1499555092.32,4479,17.38,74072.8,2.91,2.25,2.09,0,*47
1499555093.58,4480,17.38,74074.8,2.89,2.17,2.01,0,*41
1499555094.8,4481,17.38,74068.5,2.91,2.21,2.09,0,*44
1499555096.02,4482,17.38,74074.5,2.91,2.25,2.17,0,*4C
1499555097.24,4483,17.38,74074.8,2.91,2.21,2.17,0,*49
1499555098.49,4484,17.38,74076.8,2.93,2.25,2.13,0,*4C
1499555099.74,4485,17.38,74072.8,2.93,2.25,2.13,0,*4D
1499555100.93,4486,17.38,74074.8,2.91,2.05,1.83,0,*44
1499555102.16,4487,17.38,74082.3,2.89,2.05,1.79,0,*49
1499555103.38,4488,17.38,74078.8,2.91,2.17,1.93,0,*48
1499555104.61,4489,17.38,74078.8,2.91,2.17,2.05,0,*45
1499555105.84,4490,17.38,74076.0,2.91,2.25,2.17,0,*4F
1499555107.1,4491,17.38,74078.3,2.89,2.17,2.13,0,*42
1499555108.31,4492,17.38,74068.5,2.91,2.21,2.21,0,*4C
1499555109.54,4493,17.38,74070.8,2.91,2.21,2.17,0,*48
1499555110.76,4494,17.38,74070.5,2.93,2.27,2.25,0,*4A
1499555112.0,4495,17.38,74068.5,2.93,2.25,2.25,0,*49
1499555113.21,4496,17.38,74070.3,2.93,2.27,2.21,0,*4C
1499555114.41,4497,17.38,74068.8,2.91,2.35,2.25,0,*48
1499555115.63,4498,17.38,74072.3,2.93,2.39,2.27,0,*4B
1499555116.84,4499,17.38,74082.0,2.93,2.39,2.27,0,*4A
1499555118.06,4500,17.38,74080.5,2.93,2.47,2.27,0,*42
1499555119.28,4501,17.38,74074.5,2.93,2.35,2.25,0,*44
1499555120.49,4502,17.38,74070.0,2.95,2.25,2.21,0,*44
1499555121.68,4503,17.38,74058.3,2.95,2.27,2.21,0,*47
1499555122.91,4504,17.38,74062.8,2.93,2.27,2.13,0,*47
1499555124.15,4505,17.38,74074.5,2.93,2.39,2.13,0,*49
1499555125.4,4506,17.38,74068.8,2.93,2.25,2.09,0,*4C
1499555126.64,4507,17.38,74070.3,2.93,2.21,2.01,0,*41
1499555127.88,4508,17.38,74064.3,2.93,2.21,2.13,0,*4D
1499555129.09,4509,17.38,74070.3,2.93,2.27,2.21,0,*4B
1499555130.33,4510,17.38,74074.0,2.93,2.39,2.21,0,*4C
1499555131.58,4511,17.38,74072.5,2.93,2.39,2.25,0,*49
1499555132.77,4512,17.38,74076.5,2.95,2.35,2.25,0,*40
1499555133.99,4513,17.38,74064.8,2.93,2.27,2.13,0,*41
1499555135.23,4514,17.38,74064.8,2.93,2.25,2.21,0,*45
1499555136.47,4515,17.38,74066.3,2.93,2.25,2.21,0,*44
1499555137.71,4516,17.38,74074.3,2.93,2.25,2.21,0,*47
1499555138.95,4517,17.38,74074.3,2.93,2.25,2.09,0,*4C
1499555140.19,4518,17.38,74072.3,2.93,2.25,2.09,0,*43
1499555141.43,4519,17.38,74070.3,2.93,2.21,2.01,0,*4E
1499555142.67,4520,17.38,74068.0,2.93,2.21,2.09,0,*4C
1499555143.89,4521,17.38,74060.0,2.95,2.13,2.01,0,*42
1499555145.13,4522,17.38,74062.5,2.93,2.13,2.09,0,*4F
1499555146.36,4523,17.38,74066.8,2.91,2.17,2.05,0,*44
1499555147.6,4524,17.38,74070.3,2.93,2.21,2.13,0,*43
1499555148.85,4525,17.38,74074.8,2.93,2.25,2.13,0,*46
1499555150.07,4526,17.38,74076.8,2.93,2.27,2.13,0,*47
1499555151.27,4527,17.38,74066.5,2.95,2.27,2.13,0,*40
1499555152.47,4528,17.38,74066.0,2.95,2.27,2.13,0,*4F
1499555153.71,4529,17.38,74070.8,2.93,2.25,2.09,0,*41
1499555154.95,4530,17.38,74072.5,2.93,2.25,2.09,0,*49
1499555156.19,4531,17.38,74070.0,2.93,2.21,2.09,0,*4C
1499555157.41,4532,17.38,74054.3,2.93,2.27,2.13,0,*42
1499555158.65,4533,17.38,74056.8,2.93,2.25,2.21,0,*40
1499555159.87,4534,17.38,74064.8,2.93,2.27,2.21,0,*45
1499555161.09,4535,17.38,74068.0,2.95,2.25,2.09,0,*4A
1499555162.33,4536,17.38,74070.5,2.93,2.25,2.09,0,*4F
1499555163.58,4537,17.38,74068.5,2.93,2.25,2.13,0,*45
1499555164.79,4538,17.38,74068.8,2.95,2.25,2.09,0,*47
1499555166.01,4539,17.38,74064.8,2.95,2.25,2.09,0,*46
1499555167.25,4540,17.38,74066.3,2.93,2.25,2.21,0,*44
1499555168.47,4541,17.38,74066.8,2.93,2.27,2.21,0,*47
1499555169.66,4542,17.38,74072.5,2.95,2.35,2.25,0,*45
1499555170.88,4543,17.38,74070.3,2.93,2.35,2.25,0,*42
1499555172.09,4544,17.38,74074.5,2.93,2.35,2.09,0,*4B
1499555173.31,4545,17.38,74076.5,2.95,2.25,2.09,0,*4D
1499555174.53,4546,17.38,74070.8,2.95,2.21,2.09,0,*4A
1499555175.76,4547,17.38,74072.8,2.93,2.21,2.01,0,*45
1499555177.0,4548,17.38,74072.0,2.93,2.21,2.01,0,*4A
1499555178.25,4549,17.38,74076.0,2.93,2.13,2.01,0,*4A
1499555179.46,4550,17.38,74078.5,2.95,2.21,2.09,0,*4D
1499555180.7,4551,17.38,74078.0,2.93,2.25,2.21,0,*44
1499555181.94,4552,17.38,74078.8,2.93,2.25,2.21,0,*47
1499555183.15,4553,17.38,74080.5,2.93,2.35,2.21,0,*47
1499555184.34,4554,17.38,74072.8,2.95,2.35,2.21,0,*46
1499555185.56,4555,17.38,74078.0,2.95,2.25,2.21,0,*46
1499555186.77,4556,17.38,74078.3,2.95,2.25,2.21,0,*45
1499555188.01,4557,17.38,74082.5,2.93,2.25,2.21,0,*42
1499555189.25,4558,17.38,74076.3,2.93,2.25,2.13,0,*4C
1499555190.49,4559,17.38,74072.8,2.93,2.21,2.09,0,*42
1499555191.7,4560,17.38,74070.5,2.95,2.01,1.89,0,*47
1499555192.94,4561,17.38,74070.8,2.93,2.13,1.97,0,*4C
1499555194.17,4562,17.38,74068.5,2.93,2.27,2.13,0,*47
1499555195.39,4563,17.38,74078.0,2.93,2.27,2.09,0,*4D
1499555196.61,4564,17.38,74076.3,2.95,2.25,2.13,0,*45
1499555197.83,4565,17.38,74070.8,2.95,2.25,2.13,0,*44
1499555199.05,4566,17.38,74074.3,2.93,2.27,2.13,0,*43
1499555200.24,4567,17.38,74072.8,2.95,2.27,2.21,0,*45
1499555201.46,4568,17.38,74074.8,2.95,2.25,2.21,0,*48
1499555202.7,4569,17.38,74068.0,2.93,2.21,2.13,0,*4A
1499555203.94,4570,17.38,74074.0,2.93,2.25,2.13,0,*46
1499555205.16,4571,17.38,74078.5,2.95,2.25,2.21,0,*40
1499555206.38,4572,17.38,74072.0,2.95,2.25,2.13,0,*42
1499555207.62,4573,17.38,74074.3,2.93,2.25,2.21,0,*44
1499555208.86,4574,17.38,74076.3,2.93,2.21,2.13,0,*46
1499555210.1,4575,17.38,74072.5,2.93,2.25,2.21,0,*42
1499555211.31,4576,17.38,74072.3,2.95,2.25,2.21,0,*47
1499555212.54,4577,17.38,74074.5,2.95,2.25,2.13,0,*47
1499555213.77,4578,17.38,74070.0,2.93,2.25,2.21,0,*4F
1499555214.99,4579,17.38,74066.8,2.95,2.25,2.13,0,*49
1499555216.21,4580,17.38,74068.8,2.95,2.25,2.09,0,*44
1499555217.46,4581,17.38,74070.8,2.93,2.25,2.09,0,*43
1499555218.7,4582,17.38,74068.0,2.93,2.21,2.09,0,*44
1499555219.93,4583,17.38,74068.8,2.93,2.21,2.01,0,*4D
1499555221.17,4584,17.38,74070.3,2.93,2.21,2.21,0,*48
1499555222.36,4585,17.38,74068.5,2.95,2.27,2.21,0,*49
1499555223.57,4586,17.38,74074.0,2.95,2.25,2.21,0,*48
1499555224.82,4587,17.38,74072.8,2.93,2.25,2.25,0,*4B
1499555226.06,4588,17.38,74070.0,2.93,2.25,2.13,0,*41
1499555227.25,4589,17.38,74072.0,2.95,2.27,2.21,0,*45
1499555228.45,4590,17.38,74068.5,2.95,2.35,2.25,0,*4A
1499555229.61,4591,17.38,74070.0,2.95,2.27,2.27,0,*4A
1499555230.8,4592,17.38,74072.3,2.95,2.35,2.21,0,*4C
1499555232.04,4593,17.38,74070.0,2.93,2.39,2.21,0,*47
1499555233.24,4594,17.38,74074.8,2.95,2.35,2.25,0,*4E
1499555234.43,4595,17.38,74074.5,2.95,2.39,2.27,0,*41
1499555235.62,4596,17.38,74068.0,2.95,2.27,2.25,0,*4F
1499555236.81,4597,17.38,74072.5,2.95,2.35,2.21,0,*49
1499555238.0,4598,17.38,74068.5,2.95,2.35,2.21,0,*46
1499555239.19,4599,17.38,74064.0,2.95,2.35,2.21,0,*47
1499555240.38,4600,17.38,74070.5,2.95,2.39,2.27,0,*4E
1499555241.6,4601,17.38,74072.5,2.95,2.25,2.25,0,*40
1499555242.82,4602,17.38,74066.8,2.95,2.25,2.21,0,*47
1499555244.03,4603,17.38,74074.3,2.95,2.25,2.21,0,*46
1499555245.2,4604,17.38,74078.8,2.95,2.27,2.27,0,*45
1499555246.39,4605,17.38,74072.8,2.95,2.35,2.25,0,*45
1499555247.61,4606,17.38,74068.5,2.97,2.39,2.27,0,*4A
1499555248.81,4607,17.38,74062.5,2.97,2.27,2.27,0,*44
1499555250.01,4608,17.38,74068.5,2.97,2.31,2.27,0,*4C
1499555251.24,4609,17.38,74064.3,2.97,2.27,2.17,0,*49
1499555252.48,4610,17.38,74064.0,2.93,2.25,2.21,0,*42
1499555253.67,4611,17.38,74068.5,2.95,2.27,2.21,0,*47
1499555254.89,4612,17.38,74070.8,2.97,2.43,2.27,0,*42
1499555256.12,4613,17.38,74066.5,2.97,2.43,2.27,0,*43
1499555257.34,4614,17.38,74066.3,2.97,2.39,2.27,0,*49
1499555258.59,4615,17.38,74062.5,2.97,2.25,2.13,0,*42
1499555259.84,4616,17.38,74062.5,2.97,2.25,2.13,0,*41
1499555261.09,4617,17.38,74060.0,2.97,2.25,2.05,0,*47
1499555262.29,4618,17.38,74064.8,3.01,2.31,2.13,0,*44
1499555263.52,4619,17.38,74060.8,2.97,2.27,2.25,0,*49
1499555264.74,4620,17.38,74062.3,2.97,2.31,2.17,0,*45
1499555265.94,4621,17.38,74062.5,3.01,2.27,2.05,0,*4E
1499555267.17,4622,17.38,74064.8,2.97,2.27,2.01,0,*47
1499555268.39,4623,17.38,74056.0,2.95,2.09,1.85,0,*47
1499555269.58,4624,17.38,74056.5,2.95,2.01,1.75,0,*47
1499555270.8,4625,17.38,74052.5,2.95,1.97,1.63,0,*4D
1499555272.04,4626,17.38,74058.3,2.97,1.93,1.59,0,*41
1499555273.29,4627,17.38,74064.0,2.97,1.93,1.67,0,*4D
1499555274.52,4628,17.38,74060.5,2.97,1.93,1.79,0,*4D
1499555275.74,4629,17.38,74058.0,2.95,1.97,1.85,0,*49
1499555276.98,4630,17.38,74052.0,2.93,2.09,1.89,0,*4F
1499555278.19,4631,17.38,74056.0,2.95,2.21,2.13,0,*42
1499555279.43,4632,17.38,74054.3,2.93,2.25,2.21,0,*42
1499555280.62,4633,17.38,74058.0,2.95,2.27,2.21,0,*47
1499555281.84,4634,17.38,74060.0,2.95,2.25,2.13,0,*43
1499555283.04,4635,17.38,74066.8,2.95,2.27,2.09,0,*4B
1499555284.25,4636,17.38,74064.8,2.95,2.25,1.89,0,*41
1499555285.47,4637,17.38,74060.3,2.95,2.25,1.85,0,*4C
1499555286.68,4638,17.38,74068.3,2.95,2.21,1.97,0,*44
1499555287.89,4639,17.38,74070.8,2.95,2.21,1.89,0,*4A
1499555289.1,4640,17.38,74070.8,2.95,2.21,1.97,0,*4B
1499555290.31,4641,17.38,74062.3,2.95,2.21,1.97,0,*4A
1499555291.53,4642,17.38,74072.3,2.97,2.27,1.93,0,*49
1499555292.75,4643,17.38,74072.5,2.97,2.27,1.93,0,*48
1499555293.95,4644,17.38,74060.3,2.97,2.27,1.83,0,*4E
1499555295.2,4645,17.38,74064.8,2.97,2.25,1.71,0,*40
1499555296.41,4646,17.38,74064.5,2.97,1.89,1.41,0,*45
1499555297.63,4647,17.38,74066.3,2.97,1.47,1.05,0,*46
1499555298.88,4648,17.38,74068.5,2.93,1.37,0.91,0,*76
1499555300.08,4649,17.38,74064.5,2.95,1.41,0.91,0,*70
1499555301.32,4650,17.38,74066.5,2.93,1.29,0.83,0,*73
1499555302.56,4651,17.38,74066.8,2.93,1.43,0.79,0,*7B
1499555303.78,4652,17.38,74066.8,2.95,1.51,0.55,0,*73
1499555305.02,4653,17.38,74066.3,2.93,1.55,0.41,0,*75
1499555306.26,4654,17.38,74060.3,2.93,1.55,0.51,0,*73
1499555307.48,4655,17.38,74060.8,2.91,1.51,0.51,0,*74
1499555308.7,4656,17.38,74064.5,2.91,1.59,0.91,0,*73
1499555309.9,4657,17.38,74064.0,2.91,1.83,1.33,0,*4C
1499555311.06,4658,17.38,74062.3,2.91,1.83,1.41,0,*46
1499555312.28,4659,17.38,74056.8,2.89,1.83,1.43,0,*4C
1499555313.5,4660,17.38,74066.0,2.91,1.93,1.59,0,*45
1499555314.72,4661,17.38,74064.0,2.91,1.93,1.51,0,*4C
1499555315.91,4662,17.38,74068.0,2.91,1.75,1.47,0,*40
1499555317.08,4663,17.38,74068.0,2.91,1.75,1.01,0,*43
1499555318.3,4664,17.38,74072.3,2.91,1.67,0.75,0,*75
1499555319.52,4665,17.38,74076.3,2.91,1.59,0.91,0,*73
1499555320.74,4666,17.38,74076.0,2.91,1.59,1.09,0,*40
1499555321.99,4667,17.38,74076.3,2.89,1.67,1.37,0,*48
1499555323.21,4668,17.38,74070.8,2.91,1.71,1.47,0,*4E
1499555324.44,4669,17.38,74068.5,2.89,1.79,1.55,0,*4D
1499555325.63,4670,17.38,74070.0,2.91,1.79,1.47,0,*4F
1499555326.85,4671,17.38,74068.8,2.91,1.85,1.59,0,*42
1499555328.1,4672,17.38,74064.0,2.89,1.93,1.55,0,*43
1499555329.32,4673,17.38,74066.5,2.91,1.97,1.71,0,*49
1499555330.55,4674,17.38,74066.0,2.91,2.17,1.93,0,*49
1499555331.79,4675,17.38,74066.8,2.89,2.13,1.93,0,*45
1499555333.04,4676,17.38,74070.0,2.89,2.21,2.13,0,*4C
1499555334.29,4677,17.38,74070.0,2.89,2.21,2.13,0,*4D
1499555335.51,4678,17.38,74072.5,2.91,2.25,2.17,0,*4B
1499555336.74,4679,17.38,74064.3,2.91,2.25,2.09,0,*45
1499555337.95,4680,17.38,74060.0,2.91,2.21,1.93,0,*47
1499555339.16,4681,17.38,74064.8,2.91,2.21,1.93,0,*46
1499555340.39,4682,17.38,74060.5,2.91,2.21,1.85,0,*42
1499555341.6,4683,17.38,74062.5,2.91,2.21,1.63,0,*4B
1499555342.82,4684,17.38,74070.8,2.91,2.21,1.47,0,*4A
1499555344.04,4685,17.38,74068.5,2.91,1.97,1.47,0,*45